Location: Easthampton
(42.2676°N, 72.6690°W)
Time: 14:19:56
(UTC+00:00)

RS-44 - Pass Details

Date: 28 April 2024
Orbit: 1174 x 1511 km, 82.5° (Epoch: 25 May)

Event Time Altitude Azimuth Distance (km) Brightness Sun altitude
Rises 23:58:57 0° 188° (S) 4,624 ? -3.0°
Reaches altitude 10° 00:01:53 10° 189° (S) 3,629 ? -3.5°
Maximum altitude 00:10:41 84° 277° (W) 1,451 ? -5.0°
Drops below altitude 10° 00:18:59 10° 7° (N) 3,438 ? -6.4°
Sets 00:21:42 0° 8° (N) 4,371 ? -6.8°
